Time,TemperatureF,DewpointF,PressureIn,WindDirection,WindDirectionDegrees,WindSpeedMPH,WindSpeedGustMPH,Humidity,HourlyPrecipIn,Conditions,Clouds,dailyrainin,SolarRadiationWatts/m^2,SoftwareType,DateUTC
2013-05-21 00:00:00,65.0,59.0,-100.00,SSW,202,0.0,-999.0,80,-99.99,,,-99.99,0.000000,,2013-05-21 04:00:00,
2013-05-21 00:33:00,65.0,59.0,-100.00,SSW,202,0.0,-999.0,80,-99.99,,,-99.99,0.000000,,2013-05-21 04:33:00,
2013-05-21 00:42:00,65.0,59.0,-100.00,SSW,202,0.0,-999.0,80,-99.99,,,-99.99,0.000000,,2013-05-21 04:42:00,
2013-05-21 00:53:00,65.0,59.0,-100.00,SSW,202,0.0,-999.0,80,-99.99,,,-99.99,0.000000,,2013-05-21 04:53:00,
2013-05-21 01:00:00,65.0,60.0,-100.00,SSW,202,0.0,-999.0,83,-99.99,,,-99.99,0.000000,,2013-05-21 05:00:00,
2013-05-21 01:32:00,65.0,60.0,-100.00,SSW,202,0.0,-999.0,83,-99.99,,,-99.99,0.000000,,2013-05-21 05:32:00,
2013-05-21 01:42:00,65.0,60.0,-100.00,SSW,202,0.0,-999.0,83,-99.99,,,-99.99,0.000000,,2013-05-21 05:42:00,
2013-05-21 01:52:00,65.0,60.0,-100.00,SSW,202,0.0,-999.0,83,-99.99,,,-99.99,0.000000,,2013-05-21 05:52:00,
2013-05-21 02:00:00,67.0,61.0,-100.00,SSW,202,0.0,-999.0,79,-99.99,,,-99.99,0.000000,,2013-05-21 06:00:00,
2013-05-21 02:32:00,67.0,61.0,-100.00,SSW,202,0.0,-999.0,79,-99.99,,,-99.99,0.000000,,2013-05-21 06:32:00,
2013-05-21 02:42:00,67.0,61.0,-100.00,SSW,202,0.0,-999.0,79,-99.99,,,-99.99,0.000000,,2013-05-21 06:42:00,
2013-05-21 02:52:00,67.0,61.0,-100.00,SSW,202,0.0,-999.0,79,-99.99,,,-99.99,0.000000,,2013-05-21 06:52:00,
2013-05-21 03:00:00,66.0,60.0,-100.00,SSW,202,0.0,-999.0,81,-99.99,,,-99.99,0.000000,,2013-05-21 07:00:00,
2013-05-21 03:32:00,66.0,60.0,-100.00,SSW,202,0.0,-999.0,81,-99.99,,,-99.99,0.000000,,2013-05-21 07:32:00,
2013-05-21 03:42:00,66.0,60.0,-100.00,SSW,202,0.0,-999.0,81,-99.99,,,-99.99,0.000000,,2013-05-21 07:42:00,
2013-05-21 03:52:00,66.0,60.0,-100.00,SSW,202,0.0,-999.0,81,-99.99,,,-99.99,0.000000,,2013-05-21 07:52:00,
2013-05-21 05:00:00,70.0,61.0,-100.00,SSW,202,2.0,-999.0,73,-99.99,,,-99.99,0.000000,,2013-05-21 09:00:00,
2013-05-21 05:33:00,70.0,61.0,-100.00,SSW,202,2.0,-999.0,73,-99.99,,,-99.99,0.000000,,2013-05-21 09:33:00,
2013-05-21 05:42:00,70.0,61.0,-100.00,SSW,202,2.0,-999.0,73,-99.99,,,-99.99,0.000000,,2013-05-21 09:42:00,
2013-05-21 05:53:00,70.0,61.0,-100.00,SSW,202,2.0,-999.0,73,-99.99,,,-99.99,0.000000,,2013-05-21 09:53:00,
2013-05-21 06:00:00,70.0,62.0,-100.00,South,180,1.0,-999.0,76,-99.99,,,-99.99,0.000000,,2013-05-21 10:00:00,
2013-05-21 06:42:00,70.0,62.0,-100.00,South,180,1.0,-999.0,76,-99.99,,,-99.99,0.000000,,2013-05-21 10:42:00,
2013-05-21 06:52:00,70.0,62.0,-100.00,South,180,1.0,-999.0,76,-99.99,,,-99.99,0.000000,,2013-05-21 10:52:00,
2013-05-21 07:00:00,70.0,62.0,-100.00,SSW,202,1.0,-999.0,77,-99.99,,,-99.99,6.960000,,2013-05-21 11:00:00,
2013-05-21 07:42:00,70.0,62.0,-100.00,SSW,202,1.0,-999.0,77,-99.99,,,-99.99,6.960000,,2013-05-21 11:42:00,
2013-05-21 07:52:00,70.0,62.0,-100.00,SSW,202,1.0,-999.0,77,-99.99,,,-99.99,6.960000,,2013-05-21 11:52:00,
2013-05-21 08:00:00,70.0,63.0,-100.00,SSW,202,1.0,-999.0,79,-99.99,,,-99.99,63.799999,,2013-05-21 12:00:00,
2013-05-21 08:42:00,70.0,63.0,-100.00,SSW,202,1.0,-999.0,79,-99.99,,,-99.99,63.799999,,2013-05-21 12:42:00,
2013-05-21 08:52:00,70.0,63.0,-100.00,SSW,202,1.0,-999.0,79,-99.99,,,-99.99,63.799999,,2013-05-21 12:52:00,
2013-05-21 09:00:00,72.0,63.0,-100.00,SSE,157,2.0,-999.0,73,-99.99,,,-99.99,287.679993,,2013-05-21 13:00:00,
2013-05-21 09:42:00,72.0,63.0,-100.00,SSE,157,2.0,-999.0,73,-99.99,,,-99.99,287.679993,,2013-05-21 13:42:00,
2013-05-21 09:52:00,72.0,63.0,-100.00,SSE,157,2.0,-999.0,73,-99.99,,,-99.99,287.679993,,2013-05-21 13:52:00,
2013-05-21 10:00:00,73.0,64.0,-100.00,SSW,202,6.0,-999.0,72,-99.99,,,-99.99,356.119995,,2013-05-21 14:00:00,
2013-05-21 10:42:00,73.0,64.0,-100.00,SSW,202,6.0,-999.0,72,-99.99,,,-99.99,356.119995,,2013-05-21 14:42:00,
2013-05-21 10:52:00,73.0,64.0,-100.00,SSW,202,6.0,-999.0,72,-99.99,,,-99.99,356.119995,,2013-05-21 14:52:00,
2013-05-21 12:00:00,78.0,58.0,-100.00,SW,225,8.0,-999.0,50,-99.99,,,-99.99,628.719971,,2013-05-21 16:00:00,
2013-05-21 12:42:00,78.0,58.0,-100.00,SW,225,8.0,-999.0,50,-99.99,,,-99.99,628.719971,,2013-05-21 16:42:00,
2013-05-21 12:53:00,78.0,58.0,-100.00,SW,225,8.0,-999.0,50,-99.99,,,-99.99,628.719971,,2013-05-21 16:53:00,
2013-05-21 13:00:00,79.0,55.0,-100.00,SW,225,7.0,-999.0,45,-99.99,,,-99.99,519.679993,,2013-05-21 17:00:00,
2013-05-21 13:44:00,79.0,55.0,-100.00,SW,225,7.0,-999.0,45,-99.99,,,-99.99,519.679993,,2013-05-21 17:44:00,
2013-05-21 13:52:00,79.0,55.0,-100.00,SW,225,7.0,-999.0,45,-99.99,,,-99.99,519.679993,,2013-05-21 17:52:00,
2013-05-21 14:00:00,79.0,55.0,-100.00,SW,225,8.0,-999.0,44,-99.99,,,-99.99,531.280029,,2013-05-21 18:00:00,
2013-05-21 14:32:00,79.0,55.0,-100.00,SW,225,8.0,-999.0,44,-99.99,,,-99.99,531.280029,,2013-05-21 18:32:00,
2013-05-21 14:42:00,79.0,55.0,-100.00,SW,225,8.0,-999.0,44,-99.99,,,-99.99,531.280029,,2013-05-21 18:42:00,
2013-05-21 14:52:00,79.0,55.0,-100.00,SW,225,8.0,-999.0,44,-99.99,,,-99.99,531.280029,,2013-05-21 18:52:00,
2013-05-21 15:00:00,75.0,57.0,-100.00,SW,225,6.0,-999.0,53,-99.99,,,-99.99,98.599998,,2013-05-21 19:00:00,
2013-05-21 15:32:00,75.0,57.0,-100.00,SW,225,6.0,-999.0,53,-99.99,,,-99.99,98.599998,,2013-05-21 19:32:00,
2013-05-21 15:42:00,75.0,57.0,-100.00,SW,225,6.0,-999.0,53,-99.99,,,-99.99,98.599998,,2013-05-21 19:42:00,
2013-05-21 15:52:00,75.0,57.0,-100.00,SW,225,6.0,-999.0,53,-99.99,,,-99.99,98.599998,,2013-05-21 19:52:00,
2013-05-21 16:00:00,79.0,58.0,-100.00,SW,225,4.0,-999.0,48,-99.99,,,-99.99,660.039978,,2013-05-21 20:00:00,
2013-05-21 16:33:00,79.0,58.0,-100.00,SW,225,4.0,-999.0,48,-99.99,,,-99.99,660.039978,,2013-05-21 20:33:00,
2013-05-21 16:42:00,79.0,58.0,-100.00,SW,225,4.0,-999.0,48,-99.99,,,-99.99,660.039978,,2013-05-21 20:42:00,
2013-05-21 16:52:00,79.0,58.0,-100.00,SW,225,4.0,-999.0,48,-99.99,,,-99.99,660.039978,,2013-05-21 20:52:00,
2013-05-21 17:00:00,80.0,55.0,-100.00,SW,225,8.0,-999.0,41,-99.99,,,-99.99,469.799988,,2013-05-21 21:00:00,
2013-05-21 17:33:00,80.0,55.0,-100.00,SW,225,8.0,-999.0,41,-99.99,,,-99.99,469.799988,,2013-05-21 21:33:00,
2013-05-21 17:44:00,80.0,55.0,-100.00,SW,225,8.0,-999.0,41,-99.99,,,-99.99,469.799988,,2013-05-21 21:44:00,
2013-05-21 17:54:00,80.0,55.0,-100.00,SW,225,8.0,-999.0,41,-99.99,,,-99.99,469.799988,,2013-05-21 21:54:00,
2013-05-21 18:00:00,80.0,56.0,-100.00,SW,225,7.0,-999.0,42,-99.99,,,-99.99,338.720001,,2013-05-21 22:00:00,
2013-05-21 18:33:00,80.0,56.0,-100.00,SW,225,7.0,-999.0,42,-99.99,,,-99.99,338.720001,,2013-05-21 22:33:00,
2013-05-21 18:42:00,80.0,56.0,-100.00,SW,225,7.0,-999.0,42,-99.99,,,-99.99,338.720001,,2013-05-21 22:42:00,
2013-05-21 18:53:00,80.0,56.0,-100.00,SW,225,7.0,-999.0,42,-99.99,,,-99.99,338.720001,,2013-05-21 22:53:00,
2013-05-21 19:00:00,81.0,55.0,-100.00,SW,225,7.0,-999.0,42,-99.99,,,-99.99,281.880005,,2013-05-21 23:00:00,
2013-05-21 19:32:00,81.0,55.0,-100.00,SW,225,7.0,-999.0,42,-99.99,,,-99.99,281.880005,,2013-05-21 23:32:00,
2013-05-21 19:42:00,81.0,55.0,-100.00,SW,225,7.0,-999.0,42,-99.99,,,-99.99,281.880005,,2013-05-21 23:42:00,
2013-05-21 19:52:00,81.0,55.0,-100.00,SW,225,7.0,-999.0,42,-99.99,,,-99.99,281.880005,,2013-05-21 23:52:00,
2013-05-21 21:00:00,77.0,58.0,-100.00,South,180,0.0,-999.0,52,-99.99,,,-99.99,41.759998,,2013-05-22 01:00:00,
2013-05-21 21:32:00,77.0,58.0,-100.00,South,180,0.0,-999.0,52,-99.99,,,-99.99,41.759998,,2013-05-22 01:32:00,
2013-05-21 21:42:00,77.0,58.0,-100.00,South,180,0.0,-999.0,52,-99.99,,,-99.99,41.759998,,2013-05-22 01:42:00,
2013-05-21 21:52:00,77.0,58.0,-100.00,South,180,0.0,-999.0,52,-99.99,,,-99.99,41.759998,,2013-05-22 01:52:00,
2013-05-21 22:00:00,70.0,59.0,-100.00,SSE,157,0.0,-999.0,67,-99.99,,,-99.99,1.160000,,2013-05-22 02:00:00,
2013-05-21 22:32:00,70.0,59.0,-100.00,SSE,157,0.0,-999.0,67,-99.99,,,-99.99,1.160000,,2013-05-22 02:32:00,
2013-05-21 22:42:00,70.0,59.0,-100.00,SSE,157,0.0,-999.0,67,-99.99,,,-99.99,1.160000,,2013-05-22 02:42:00,
2013-05-21 22:52:00,70.0,59.0,-100.00,SSE,157,0.0,-999.0,67,-99.99,,,-99.99,1.160000,,2013-05-22 02:52:00,
2013-05-21 23:00:00,70.0,59.0,-100.00,SSW,202,1.0,-999.0,68,-99.99,,,-99.99,0.000000,,2013-05-22 03:00:00,
2013-05-21 23:33:00,70.0,59.0,-100.00,SSW,202,1.0,-999.0,68,-99.99,,,-99.99,0.000000,,2013-05-22 03:33:00,
2013-05-21 23:43:00,70.0,59.0,-100.00,SSW,202,1.0,-999.0,68,-99.99,,,-99.99,0.000000,,2013-05-22 03:43:00,
2013-05-21 23:53:00,70.0,59.0,-100.00,SSW,202,1.0,-999.0,68,-99.99,,,-99.99,0.000000,,2013-05-22 03:53:00,